#timestamp,LO_Frequency,Hit,StdDev 
1592971215.8,286047002.6,N
1592971235.7,286047002.7,N
1592971255.5,286047002.4,N
1592971275.3,286047002.0,N
1592971295.2,286047002.7,N
1592971315.0,286047002.7,N
1592971315.9,286047002.7,N
1592971335.8,286047000.1,N
1592971355.6,286047000.4,N
1592971375.4,286047000.3,N
1592971395.3,286047001.1,N
1592971415.1,286047000.7,N
1592971435.8,286047001.0,N
1592971455.7,286046998.9,N
1592971475.5,286046998.8,N
1592971495.3,286047000.9,N
1592971515.2,286047000.9,N
1592971535.0,286047001.2,N
1592971535.9,286047001.2,N
1592971555.8,286046998.8,N
1592971575.6,286046998.9,N
1592971595.4,286046996.5,N
1592971615.3,286046996.6,N
1592971635.1,286046996.8,N
1592971655.9,286046997.3,N
1592971675.7,286046999.1,N
1592971695.5,286046997.1,N
1592971715.4,286046997.0,N
1592971735.2,286046996.7,N
1592971755.0,286046999.4,N
1592971755.9,286046999.4,N
1592971775.8,286046997.1,N
1592971795.6,286046997.1,N
1592971815.4,286046996.9,N
1592971835.3,286046996.8,N
1592971855.1,286046996.8,N
1592971875.9,286046997.3,N
1592971895.7,286046997.9,N
1592971915.5,286046997.3,N
1592971935.4,286046996.9,N
1592971955.2,286047001.1,N
1592971975.0,286046999.3,N
1592971975.9,286046999.3,N
1592971995.8,286046999.1,N
1592972015.6,286046998.7,N
1592972035.5,286046999.1,N
1592972055.3,286046999.5,N
1592972075.1,286046999.6,N
1592972095.9,286046997.3,N
1592972115.7,286046997.9,N
1592972135.5,286046997.4,N
1592972155.4,286046996.8,N
1592972175.2,286046997.6,N
1592972195.1,286046995.4,Y
1592972196.0,286046995.4,P
1592972215.8,286046999.2,N
1592972235.6,286046998.4,N
1592972255.5,286047001.2,N
1592972275.3,286047000.9,N
1592972295.1,286047000.1,N
1592972315.9,286046998.2,N
1592972335.7,286047000.8,N
1592972355.5,286046998.9,N
1592972375.4,286046998.7,N
1592972395.2,286046998.9,N
1592972415.1,286046998.3,N
1592972416.0,286046998.3,N
1592972435.8,286046999.3,N
1592972455.6,286046999.6,N
1592972475.5,286046999.6,N
1592972495.3,286046998.4,N
1592972515.1,286046996.8,N
1592972535.9,286046999.1,N
1592972555.7,286046999.1,N
1592972575.6,286046998.7,N
1592972595.4,286046999.6,N
1592972615.2,286046998.7,N
1592972635.1,286046999.5,N
1592972636.0,286046999.5,N
1592972655.8,286046998.8,N
1592972675.6,286047001.1,N
1592972695.5,286047000.7,N
1592972715.3,286046998.1,N
1592972735.2,286046998.6,N
1592972755.9,286047001.1,N
1592972775.7,286046998.8,N
1592972795.6,286046998.6,N
1592972815.4,286046998.8,N
1592972835.2,286047001.0,N
1592972855.1,286046998.5,N
1592972856.0,286046998.5,N
1592972875.8,286047000.8,N
1592972895.6,286046998.7,N
1592972915.5,286047000.7,N
1592972935.3,286046998.2,N
1592972955.2,286046998.4,N
1592972975.9,286046998.4,N
1592972995.7,286046998.5,N
1592973015.6,286046998.2,N
1592973035.4,286046999.9,N
1592973055.2,286047000.8,N
1592973075.1,286047000.5,N
1592973076.0,286047000.5,N
1592973095.8,286047000.6,N
1592973115.7,286047000.0,N
1592973135.5,286046998.1,N
1592973155.3,286046999.7,N
1592973175.2,286047002.6,N
1592973195.0,286047002.8,N
1592973195.9,286047002.8,N
1592973215.7,286047002.2,N
1592973235.6,286046999.8,N
1592973255.4,286047000.3,N
1592973275.3,286047000.6,N
1592973295.1,286047002.7,N
1592973296.0,286047002.7,N
1592973315.8,286047002.2,N
1592973335.7,286047002.5,N
1592973355.5,286047002.4,N
1592973375.3,286047000.1,N
1592973395.2,286047000.4,N
1592973415.0,286047000.3,N
1592973415.9,286047000.3,N
1592973435.8,286047000.0,N
1592973455.6,286047000.6,N
1592973475.4,286047002.8,N
1592973495.3,286047002.4,N
1592973515.1,286046999.8,N
1592973535.9,286047002.6,N
1592973555.7,286047002.6,N
1592973575.5,286047001.3,N
1592973595.4,286047003.0,N
1592973615.2,286047005.6,Y
1592973635.1,286047004.1,P
1592973636.0,286047004.1,N
1592973655.8,286047001.5,N
1592973675.6,286047001.8,N
1592973695.5,286047002.0,N
1592973715.3,286047002.6,N
1592973735.1,286047002.4,N
1592973755.9,286047000.4,N
1592973775.7,286047000.4,N
1592973795.6,286047000.9,N
1592973815.4,286046998.1,N
1592973835.2,286047000.9,N
1592973855.1,286046998.1,N
1592973856.0,286046998.1,N
1592973875.8,286046998.1,N
1592973895.7,286046998.2,N
1592973915.5,286047000.7,N
1592973935.3,286047000.0,N
1592973955.2,286047000.7,N
1592973975.0,286047000.4,N
1592973975.9,286047000.4,N
1592973995.8,286046998.1,N
1592974015.6,286047000.2,N
1592974035.4,286047000.3,N
1592974055.3,286046999.8,N
1592974075.1,286046999.9,N
1592974095.8,286046999.7,N
1592974115.7,286046999.7,N
1592974135.5,286047000.5,N
1592974155.4,286046998.2,N
1592974175.2,286046998.5,N
1592974195.0,286046999.9,N
1592974195.9,286046999.9,N
1592974215.8,286046999.8,N
1592974235.6,286046999.8,N
1592974255.4,286047001.0,N
1592974275.3,286047000.9,N
1592974295.1,286047000.3,N
1592974315.9,286046999.9,N
1592974335.7,286047000.5,N
1592974355.5,286047002.1,N
1592974375.4,286047002.3,N
1592974395.2,286047002.1,N
1592974415.0,286046999.9,N
1592974416.0,286046999.9,N
1592974435.8,286047000.4,N
1592974455.6,286047001.0,N
1592974475.5,286047000.9,N
1592974495.3,286047000.5,N
1592974515.1,286047002.6,N
1592974535.9,286046999.8,N
1592974555.7,286047000.7,N
1592974575.6,286047001.0,N
1592974595.4,286047000.6,N
1592974615.2,286047000.2,N
1592974635.1,286047000.0,N
1592974636.0,286047000.0,N
1592974655.8,286047001.0,N
1592974675.7,286047001.1,N
1592974695.5,286047000.4,N
1592974715.3,286047000.1,N
1592974735.2,286046999.9,N
1592974755.9,286047000.1,N
1592974775.7,286047001.2,N
1592974795.6,286047000.5,N
